Medford, OR

12:08 PM PDT on June 25, 2017 (GMT -0700)
Rogue Valley International-Medford

Weather History for KMFR - July, 2013

Change the Weather History Date:

Sunday, July 14, 2013

  Actual Average Record
Temperature  
Mean Temperature 79 °F 74 °F  
Max Temperature 99 °F 91 °F 107 °F (1987)
Min Temperature 58 °F 57 °F 44 °F (1962)
Degree Days  
Heating Degree Days 0 0  
Month to date heating degree days 0 1  
Since 1 June heating degree days 35 55  
Since 1 July heating degree days 0 1  
Cooling Degree Days 14 9  
Month to date cooling degree days 188 110  
Year to date cooling degree days 369 256  
Since 1 June cooling degree days 334 218  
Growing Degree Days 28 (Base 50)    
Moisture  
Dew Point 46 °F    
Average Humidity 39    
Maximum Humidity 62    
Minimum Humidity 15    
Precipitation  
Precipitation 0.00 in 0.01 in 0.19 in (1920)
Month to date precipitation 0.00 0.15  
Year to date precipitation 4.13 9.61  
Snow  
Snow 0.00 in 0.00 in - ()
Month to date snowfall 0.0 0.0  
Since 1 July snowfall 0.0 0.0  
Snow Depth 0.00 in    
Sea Level Pressure  
Sea Level Pressure 29.93 in    
Wind  
Wind Speed 4 mph (NW)    
Max Wind Speed 20 mph    
Max Gust Speed 23 mph    
Visibility 10 miles    
Events      
T = Trace of Precipitation, MM = Missing Value Source: NWS Daily Summary

Daily Weather History Graph

Daily Weather History Graph

Search for Another Location

Airport or City:

Trip Planner

Search our weather history database for the weather conditions in past years. The results will help you decide how hot, cold, wet, or windy it might be!

Date:

Astronomy

Jul. 14, 2013 Rise Set
Actual Time 5:47 AM PDT 8:46 PM PDT
Civil Twilight 5:13 AM PDT 9:20 PM PDT
Nautical Twilight 4:30 AM PDT 10:03 PM PDT
Astronomical Twilight 3:40 AM PDT 10:53 PM PDT
Moon 12:18 PM PDT (7/14) 11:52 PM PDT (7/14)
Length of Visible Light 16h 06m
Length of Day
14h 59m
Waxing Crescent, 36% of the Moon is Illuminated
Jul 14
Waxing Crescent
Jul 15
First Quarter
Jul 22
Full
Jul 29
Last Quarter
Aug 6
New

Hourly Weather History & Observations

Time (PDT) Temp. Dew Point Humidity Pressure Visibility Wind Dir Wind Speed Gust Speed Precip Events Conditions
12:53 AM 66.9 °F 46.0 °F 47% 29.99 in 10.0 mi Calm Calm - N/A   Clear
1:53 AM 66.9 °F 46.0 °F 47% 29.99 in 10.0 mi West 3.5 mph - N/A   Clear
2:53 AM 62.1 °F 46.0 °F 56% 30.00 in 10.0 mi Calm Calm - N/A   Clear
3:53 AM 63.0 °F 46.0 °F 54% 30.00 in 10.0 mi Calm Calm - N/A   Clear
4:53 AM 61.0 °F 46.0 °F 58% 30.00 in 10.0 mi Calm Calm - N/A   Clear
5:53 AM 59.0 °F 46.0 °F 62% 30.01 in 10.0 mi Calm Calm - N/A   Clear
6:53 AM 61.0 °F 46.9 °F 60% 30.02 in 10.0 mi Calm Calm - N/A   Clear
7:53 AM 64.0 °F 46.9 °F 54% 30.02 in 10.0 mi Calm Calm - N/A   Clear
8:53 AM 68.0 °F 46.9 °F 47% 30.02 in 10.0 mi Calm Calm - N/A   Clear
9:53 AM 73.9 °F 46.9 °F 38% 30.00 in 10.0 mi Calm Calm - N/A   Clear
10:53 AM 78.1 °F 46.9 °F 33% 29.98 in 10.0 mi WNW 3.5 mph - N/A   Clear
11:53 AM 82.9 °F 46.0 °F 27% 29.96 in 10.0 mi WSW 5.8 mph - N/A   Clear
12:53 PM 89.1 °F 46.0 °F 22% 29.93 in 10.0 mi Calm Calm - N/A   Clear
1:53 PM 91.9 °F 46.9 °F 21% 29.90 in 10.0 mi WNW 6.9 mph - N/A   Clear
2:53 PM 95.0 °F 44.1 °F 17% 29.87 in 10.0 mi NNW 10.4 mph 16.1 mph N/A   Partly Cloudy
3:53 PM 97.0 °F 43.0 °F 16% 29.85 in 10.0 mi West 10.4 mph - N/A   Clear
4:53 PM 98.1 °F 43.0 °F 15% 29.83 in 10.0 mi West 10.4 mph 16.1 mph N/A   Partly Cloudy
5:53 PM 98.1 °F 42.1 °F 15% 29.82 in 10.0 mi NW 8.1 mph - N/A   Partly Cloudy
6:53 PM 95.0 °F 46.0 °F 19% 29.83 in 10.0 mi North 17.3 mph - N/A   Partly Cloudy
7:53 PM 91.0 °F 45.0 °F 20% 29.85 in 10.0 mi North 15.0 mph - N/A   Clear
8:53 PM 86.0 °F 45.0 °F 24% 29.87 in 10.0 mi North 4.6 mph - N/A   Clear
9:53 PM 82.9 °F 46.0 °F 27% 29.89 in 10.0 mi NNW 4.6 mph - N/A   Clear
10:53 PM 78.1 °F 45.0 °F 31% 29.90 in 10.0 mi Calm Calm - N/A   Clear
11:53 PM 77.0 °F 46.9 °F 34% 29.90 in 10.0 mi Calm Calm - N/A   Clear